Location: Kermapucano
(48.0667°N, 3.3000°W)
Time: 20:10:43
(UTC+00:00)

COSMOS 2406 - Pass Details

Date: 29 November 2020
Orbit: 840 x 866 km, 71.0° (Epoch: 27 January)

Event Time Altitude Azimuth Distance (km) Brightness Sun altitude
Exits shadow 07:00:28 - 330° (NNW) 3,282 5.8 -6.6°
Reaches altitude 10° 07:02:31 10° 329° (NNW) 2,503 5.2 -6.3°
Maximum altitude 07:08:15 73° 246° (WSW) 904 3.3 -5.5°
Drops below altitude 10° 07:13:59 10° 163° (SSE) 2,500 6.4 -4.6°
Sets 07:16:27 0° 161° (SSE) 3,435 7.2 -4.3°
